TimeMDT,TemperatureF,Dew PointF,Humidity,Sea Level PressureIn,VisibilityMPH,Wind Direction,Wind SpeedMPH,Gust SpeedMPH,PrecipitationIn,Events,Conditions,WindDirDegrees,DateUTC
12:15 AM,68.9,44.4,41,29.95,10.0,South,17.3,27.6,N/A,,Clear,180,2014-05-17 06:15:00
12:35 AM,68.0,46.4,46,29.95,10.0,South,13.8,21.9,N/A,,Clear,190,2014-05-17 06:35:00
12:55 AM,67.6,48.9,51,29.94,10.0,South,15.0,27.6,N/A,,Clear,190,2014-05-17 06:55:00
1:15 AM,67.1,50.0,54,29.94,10.0,South,12.7,25.3,N/A,,Clear,190,2014-05-17 07:15:00
1:35 AM,66.6,50.5,56,29.95,10.0,South,8.1,21.9,N/A,,Clear,190,2014-05-17 07:35:00
1:55 AM,66.2,50.9,58,29.95,10.0,South,8.1,-,N/A,,Clear,190,2014-05-17 07:55:00
2:15 AM,65.8,50.5,58,29.94,10.0,South,8.1,18.4,N/A,,Clear,190,2014-05-17 08:15:00
2:35 AM,65.3,50.5,59,29.94,10.0,South,10.4,20.7,N/A,,Clear,190,2014-05-17 08:35:00
2:55 AM,64.6,50.2,60,29.94,10.0,South,6.9,17.3,N/A,,Clear,190,2014-05-17 08:55:00
3:15 AM,64.2,50.0,60,29.94,10.0,SSW,5.8,17.3,N/A,,Clear,200,2014-05-17 09:15:00
3:35 AM,63.5,49.3,60,29.94,10.0,SW,3.5,-,N/A,,Clear,220,2014-05-17 09:35:00
3:55 AM,63.3,46.9,55,29.94,10.0,North,3.5,-,N/A,,Clear,360,2014-05-17 09:55:00
4:15 AM,62.6,43.7,50,29.95,10.0,Calm,Calm,-,N/A,,Clear,0,2014-05-17 10:15:00
4:35 AM,61.3,40.3,46,29.96,10.0,Calm,Calm,-,N/A,,Clear,0,2014-05-17 10:35:00
4:55 AM,62.1,41.9,48,29.96,10.0,South,4.6,-,N/A,,Clear,190,2014-05-17 10:55:00
5:15 AM,61.3,44.8,55,29.96,10.0,South,8.1,-,N/A,,Clear,190,2014-05-17 11:15:00
5:35 AM,61.2,46.8,59,29.97,10.0,South,8.1,-,N/A,,Clear,180,2014-05-17 11:35:00
5:55 AM,61.2,47.7,61,29.98,10.0,South,8.1,-,N/A,,Clear,190,2014-05-17 11:55:00
6:15 AM,61.3,48.7,63,29.98,10.0,South,4.6,-,N/A,,Clear,190,2014-05-17 12:15:00
6:35 AM,62.1,50.0,65,29.98,10.0,Calm,Calm,-,N/A,,Clear,0,2014-05-17 12:35:00
6:55 AM,63.5,51.8,66,29.99,10.0,SSW,5.8,-,N/A,,Clear,200,2014-05-17 12:55:00
7:15 AM,64.8,52.7,65,29.99,10.0,SSW,6.9,-,N/A,,Clear,200,2014-05-17 13:15:00
7:35 AM,65.7,52.9,63,29.99,10.0,SSW,6.9,18.4,N/A,,Clear,200,2014-05-17 13:35:00
7:55 AM,67.5,52.7,59,29.99,10.0,South,11.5,18.4,N/A,,Clear,190,2014-05-17 13:55:00
8:15 AM,69.4,51.3,52,29.99,10.0,SSW,10.4,20.7,N/A,,Clear,200,2014-05-17 14:15:00
8:35 AM,70.3,51.4,51,29.99,10.0,SSW,12.7,25.3,N/A,,Clear,200,2014-05-17 14:35:00
8:55 AM,71.8,52.0,50,29.99,10.0,South,15.0,23.0,N/A,,Clear,190,2014-05-17 14:55:00
9:15 AM,73.4,52.9,49,29.99,10.0,South,5.8,23.0,N/A,,Clear,180,2014-05-17 15:15:00
9:35 AM,74.7,53.6,48,29.99,10.0,SSW,9.2,18.4,N/A,,Clear,200,2014-05-17 15:35:00
9:55 AM,75.9,54.1,47,30.00,10.0,SSW,10.4,17.3,N/A,,Clear,200,2014-05-17 15:55:00
10:15 AM,77.0,54.5,46,30.00,10.0,South,10.4,19.6,N/A,,Clear,190,2014-05-17 16:15:00
10:35 AM,78.3,54.9,44,30.00,10.0,SSW,4.6,17.3,N/A,,Clear,200,2014-05-17 16:35:00
10:55 AM,78.6,54.7,43,30.00,10.0,South,11.5,-,N/A,,Clear,170,2014-05-17 16:55:00
11:15 AM,80.1,55.2,42,29.99,10.0,South,15.0,18.4,N/A,,Clear,170,2014-05-17 17:15:00
11:35 AM,80.6,54.5,40,29.98,10.0,South,10.4,21.9,N/A,,Clear,180,2014-05-17 17:35:00
11:55 AM,81.7,55.4,40,29.98,10.0,South,10.4,18.4,N/A,,Clear,170,2014-05-17 17:55:00
12:15 PM,82.2,55.4,40,29.98,10.0,SSE,11.5,19.6,N/A,,Clear,160,2014-05-17 18:15:00
12:35 PM,82.6,54.3,38,29.98,10.0,South,9.2,17.3,N/A,,Clear,170,2014-05-17 18:35:00
12:55 PM,83.5,54.3,37,29.97,10.0,South,9.2,20.7,N/A,,Clear,180,2014-05-17 18:55:00
1:15 PM,84.4,53.4,34,29.97,10.0,SSW,8.1,16.1,N/A,,Clear,200,2014-05-17 19:15:00
1:35 PM,84.2,52.5,33,29.96,10.0,South,15.0,21.9,N/A,,Clear,180,2014-05-17 19:35:00
1:55 PM,85.3,53.2,33,29.96,10.0,South,9.2,-,N/A,,Clear,170,2014-05-17 19:55:00
2:15 PM,85.6,54.1,34,29.95,10.0,SSW,8.1,16.1,N/A,,Clear,200,2014-05-17 20:15:00
2:35 PM,86.0,53.8,33,29.95,10.0,South,10.4,-,N/A,,Clear,180,2014-05-17 20:35:00
2:55 PM,86.0,52.9,32,29.94,10.0,SSE,11.5,16.1,N/A,,Clear,160,2014-05-17 20:55:00
3:15 PM,86.7,52.5,31,29.93,10.0,South,13.8,20.7,N/A,,Clear,170,2014-05-17 21:15:00
3:35 PM,86.4,51.6,30,29.92,10.0,SSE,11.5,20.7,N/A,,Clear,160,2014-05-17 21:35:00
3:55 PM,85.3,51.6,31,29.92,10.0,SSE,9.2,19.6,N/A,,Clear,160,2014-05-17 21:55:00
4:15 PM,86.0,52.0,31,29.91,10.0,South,11.5,18.4,N/A,,Clear,180,2014-05-17 22:15:00
4:35 PM,86.4,52.5,31,29.91,10.0,SSE,10.4,20.7,N/A,,Clear,160,2014-05-17 22:35:00
4:55 PM,85.8,51.8,31,29.91,10.0,SSE,11.5,19.6,N/A,,Clear,160,2014-05-17 22:55:00
5:15 PM,85.6,51.4,31,29.91,10.0,SSE,11.5,19.6,N/A,,Clear,160,2014-05-17 23:15:00
5:35 PM,84.7,50.4,30,29.90,10.0,South,12.7,20.7,N/A,,Clear,170,2014-05-17 23:35:00
5:55 PM,84.4,50.5,31,29.90,10.0,South,10.4,20.7,N/A,,Clear,170,2014-05-17 23:55:00
6:15 PM,83.3,49.8,31,29.90,10.0,South,9.2,17.3,N/A,,Clear,180,2014-05-18 00:15:00
6:35 PM,82.4,49.3,31,29.91,10.0,South,9.2,18.4,N/A,,Clear,170,2014-05-18 00:35:00
6:55 PM,81.0,48.4,32,29.91,10.0,SSE,9.2,-,N/A,,Clear,160,2014-05-18 00:55:00
7:15 PM,79.2,48.6,34,29.92,10.0,SSE,4.6,-,N/A,,Clear,160,2014-05-18 01:15:00
7:35 PM,77.4,49.1,37,29.93,10.0,SSE,3.5,-,N/A,,Clear,150,2014-05-18 01:35:00
7:55 PM,76.1,50.4,40,29.94,10.0,SSE,9.2,-,N/A,,Clear,150,2014-05-18 01:55:00
8:15 PM,75.6,50.7,42,29.95,10.0,SSE,5.8,-,N/A,,Clear,150,2014-05-18 02:15:00
8:35 PM,74.3,50.0,42,29.96,10.0,SSE,4.6,-,N/A,,Clear,150,2014-05-18 02:35:00
8:55 PM,73.2,48.7,42,29.97,10.0,SSE,5.8,-,N/A,,Clear,150,2014-05-18 02:55:00
9:15 PM,72.5,46.6,40,29.97,10.0,SE,5.8,-,N/A,,Clear,140,2014-05-18 03:15:00
9:35 PM,71.2,46.8,42,29.98,10.0,SSE,6.9,-,N/A,,Clear,150,2014-05-18 03:35:00
9:55 PM,70.2,48.4,46,29.99,10.0,SSE,9.2,-,N/A,,Clear,150,2014-05-18 03:55:00
10:15 PM,69.6,49.3,48,30.00,10.0,SSE,6.9,-,N/A,,Clear,150,2014-05-18 04:15:00
10:35 PM,69.1,50.5,52,30.00,10.0,SSE,9.2,-,N/A,,Clear,160,2014-05-18 04:35:00
10:55 PM,68.5,51.3,54,30.00,10.0,SSE,12.7,18.4,N/A,,Clear,160,2014-05-18 04:55:00
11:15 PM,67.8,51.8,56,30.00,10.0,SSE,12.7,18.4,N/A,,Clear,160,2014-05-18 05:15:00
11:35 PM,67.1,52.5,59,30.00,10.0,SSE,11.5,18.4,N/A,,Clear,160,2014-05-18 05:35:00